User: anonymous   Login
Location: Holiday Acres Laynes 2 Mobile Home Park
(26.7249°N, 81.8671°W)
Time: 16:52:09
(UTC+00:00)
Language:

Cosmos 1602 - Orbit

View from above orbital plane
View from above orbital plane
View from above satellite
View from above satellite

Ground track
Ground track

The orbit data is extracted from the following two-line orbital elements,

1 15331U 84105A   21062.77275331  .00001350  00000-0  72172-4 0  9999
2 15331  82.5351  75.1998 0012894 285.2454  74.7352 15.14210294986631
Epoch (UTC): 03 March 2021 18:32:45
Eccentricity: 0.0012894
inclination: 82.5351°
perigee height: 514 km
apogee height: 532 km
right ascension of ascending node: 75.1998°
argument of perigee: 285.2454°
revolutions per day: 15.14210294
mean anomaly at epoch: 74.7352°
orbit number at epoch: 98663

The dashed part of the orbit path shows where the satellite is in the earth's shadow,  

DLR